Regional Weather Roundup
Issued by NWS Newport/Morehead, NC

Current Version | Previous Version | Graphics & Text | Print | Product List | Glossary Off
Versions: 1 2 3 4 5 6 7 8 9 10 11 12 13 14 15 16 17 18 19 20 21 22 23 24 25 26 27 28 29 30 31 32 33 34 35 36 37 38 39 40 41 42 43 44 45 46 47 48 49 50

000
ASUS42 KMHX 050812
RWRMHX
WEATHER ROUNDUP FOR EASTERN NORTH CAROLINA
NATIONAL WEATHER SERVICE NEWPORT/MOREHEAD CITY NC
300 AM EST THU MAR 05 2015

NOTE: "FAIR" INDICATES FEW OR NO CLOUDS BELOW 12,000 FEET
WITH NO SIGNIFICANT WEATHER AND/OR OBSTRUCTIONS TO VISIBILITY

NCZ015>017-031-032-045>047-102-103-050900-
NORTH COAST

CITY           SKY/WX    TMP DP  RH WIND       PRES   REMARKS
EDENTON        CLEAR     59  57  94 S6        29.89F
ELIZABETH CITY CLEAR     60  58  92 SW9       29.89S
KITTY HAWK     MOSUNNY   61  60  99 SW9       29.89F
MANTEO         CLEAR     59  57  94 SW15      29.91F

$$

NCZ045>047-081-094-103-104-050900-
CENTRAL COAST

CITY           SKY/WX    TMP DP  RH WIND       PRES   REMARKS
FRISCO         FOG       56  56 100 SW12      29.95F VSB 3/4
SWANQUARTER      N/A     57 N/A N/A SW17G26   29.88S

$$

NCZ095-097-098-100-101-050900-
SOUTHERN COAST

CITY           SKY/WX    TMP DP  RH WIND       PRES   REMARKS
BEAUFORT       FOG       58  58 100 SW10      29.97F VSB 3/4
CEDAR ISLAND     N/A     63 N/A N/A S17G25    29.97F
JACKSONVILLE   PTCLDY    70  65  84 SW15G25   29.93F
PINEY ISLAND     N/A    N/A N/A N/A MISG      29.95F
WILMINGTON     CLOUDY    68  65  90 SW22G35   29.95F


$$

NCZ011>013-027>030-043-044-078>080-089-090>093-098-050900-
COASTAL PLAIN

CITY           SKY/WX    TMP DP  RH WIND       PRES   REMARKS
AHOSKIE        CLOUDY    56  55  97 CALM      29.89S
CLINTON        CLEAR     65  63  94 S3        29.92F
ELIZABETHTOWN  CLEAR     66  62  87 S7        29.93F
GOLDSBORO      CLEAR     65  65 100 SW10      29.88F
GREENVILLE     CLEAR     64  63  94 SW12G18   29.91F
HAVELOCK       CLOUDY    68  64  87 SW22G35   29.94F
KENANSVILLE    CLEAR     65  61  86 SW3       29.93F
KINSTON        CLEAR     65  62  89 SW12      29.91F
NEW BERN       PTCLDY    68  63  84 SW12G21   29.93F
RICHLANDS      PTCLDY    66  63  88 S13       29.94S
ROCKY MOUNT    PTCLDY    65  61  87 SW14      29.88S
WASHINGTON     CLEAR     67  62  85 SW13      29.90F
WHITEVILLE     CLEAR     66  61  85 S8        29.94F

$$

AMZ130-135-150-152-154-156-158-170-250-252-270-ANZ085-086-088-633-658-670-050900-
MARINE OBSERVATIONS

STATION/POSITION TIME  TEMP    WIND        PRES    WAVE   SWELL
                       AIR SEA DIR/SP/G            HT/PER HT/PER
                 (UTC) (F)     (DEG/KT/KT) (MB)    (FT/S) (FT/S)
CHESAPEAKE LIGHT 0700   45     340/  8/  8 1012.8
64 E VA BEACH    0750   55 52  210/ 21/ 23 1011.2    7/ 6
DUCK             0700   59 35  200/ 16/ 20   N/A
2 E DUCK         0711      36                N/A     2/10
10 NE DUCK       0722      38                N/A     4/ 7
OREGON INLET     0700   50 50  200/ 15/ 17   N/A
HATTERAS CG      0700   57 48  220/ 11/ 15   N/A
CAPE LOOKOUT     0800   59     220/  9/ 12 1015.0
BEAUFORT LAB     0700   55 47  230/  5/ 10   N/A
27 SE WRIGHTSVLE NOT AVBL
5 SE WRIGHTSVLE  NOT AVBL
225 S CAPE HAT   0750   73 73  220/ 19/ 23 1019.4    6/ 9   3/ 9
41 SE CHARLESTON 0750   70 69  210/ 17/ 21 1015.5    6/ 6   3/ 8

$$


USA.gov is the U.S. government's official web portal to all federal, state and local government web resources and services.